Time,TemperatureF,DewpointF,PressureIn,WindDirection,WindDirectionDegrees,WindSpeedMPH,WindSpeedGustMPH,Humidity,HourlyPrecipIn,Conditions,Clouds,dailyrainin,SoftwareType,DateUTC
2013-12-24 00:02:00,76.6,66.9,29.74,SSW,212,8.0,13.0,72,0.00,CLR,,0.00,WeatherDisplay:10.37,2013-12-23 13:02:00,
2013-12-24 00:07:00,76.4,66.7,29.74,SSW,209,5.0,12.0,72,0.00,CLR,,0.00,WeatherDisplay:10.37,2013-12-23 13:07:00,
2013-12-24 00:12:00,76.3,66.6,29.74,SW,218,8.0,12.0,72,0.00,CLR,,0.00,WeatherDisplay:10.37,2013-12-23 13:12:00,
2013-12-24 00:17:00,76.3,66.6,29.73,SSW,212,9.0,18.0,72,0.00,CLR,,0.00,WeatherDisplay:10.37,2013-12-23 13:17:00,
2013-12-24 00:22:00,76.1,66.8,29.75,SSW,206,6.0,18.0,73,0.00,CLR,,0.00,WeatherDisplay:10.37,2013-12-23 13:22:00,
2013-12-24 00:27:00,75.9,66.6,29.74,SSW,200,3.0,12.0,73,0.00,CLR,,0.00,WeatherDisplay:10.37,2013-12-23 13:27:00,
2013-12-24 00:32:00,75.7,66.5,29.75,SSW,195,5.0,17.0,73,0.00,CLR,,0.00,WeatherDisplay:10.37,2013-12-23 13:32:00,
2013-12-24 00:37:00,75.6,66.3,29.75,SSW,212,8.0,17.0,73,0.00,CLR,,0.00,WeatherDisplay:10.37,2013-12-23 13:37:00,
2013-12-24 00:42:00,75.4,66.5,29.74,SSW,201,6.0,12.0,74,0.00,CLR,,0.00,WeatherDisplay:10.37,2013-12-23 13:42:00,
2013-12-24 00:47:00,75.4,66.5,29.75,SSW,202,5.0,10.0,74,0.00,CLR,,0.00,WeatherDisplay:10.37,2013-12-23 13:47:00,
2013-12-24 00:52:00,75.0,66.6,29.75,SSW,208,1.0,10.0,75,0.00,CLR,,0.00,WeatherDisplay:10.37,2013-12-23 13:52:00,
2013-12-24 00:57:00,75.0,66.6,29.74,SSW,211,1.0,5.0,75,0.00,CLR,,0.00,WeatherDisplay:10.37,2013-12-23 13:57:00,
2013-12-24 01:02:00,75.0,66.6,29.75,SW,220,5.0,12.0,75,0.00,CLR,,0.00,WeatherDisplay:10.37,2013-12-23 14:02:00,
2013-12-24 01:07:00,74.8,66.4,29.75,SSW,213,3.0,12.0,75,0.00,CLR,,0.00,WeatherDisplay:10.37,2013-12-23 14:07:00,
2013-12-24 01:12:00,74.8,66.4,29.75,SW,216,1.0,15.0,75,0.00,CLR,,0.00,WeatherDisplay:10.37,2013-12-23 14:12:00,
2013-12-24 01:17:00,74.8,66.4,29.76,SW,220,6.0,10.0,75,0.00,CLR,,0.00,WeatherDisplay:10.37,2013-12-23 14:17:00,
2013-12-24 01:22:00,74.7,66.2,29.76,SSW,203,5.0,9.0,75,0.00,CLR,,0.00,WeatherDisplay:10.37,2013-12-23 14:22:00,
2013-12-24 01:27:00,74.5,66.0,29.76,SW,214,1.0,9.0,75,0.00,CLR,,0.00,WeatherDisplay:10.37,2013-12-23 14:27:00,
2013-12-24 01:32:00,74.5,66.0,29.76,SW,217,2.0,11.0,75,0.00,CLR,,0.00,WeatherDisplay:10.37,2013-12-23 14:32:00,
2013-12-24 01:37:00,74.3,65.9,29.76,SSW,200,3.0,10.0,75,0.00,CLR,,0.00,WeatherDisplay:10.37,2013-12-23 14:37:00,
2013-12-24 01:42:00,74.3,65.9,29.76,SSW,211,1.0,8.0,75,0.00,CLR,,0.00,WeatherDisplay:10.37,2013-12-23 14:42:00,
2013-12-24 01:47:00,74.5,66.4,29.77,SSW,196,2.0,8.0,76,0.00,CLR,,0.00,WeatherDisplay:10.37,2013-12-23 14:47:00,
2013-12-24 01:52:00,74.2,66.2,29.77,South,184,1.0,8.0,76,0.00,CLR,,0.00,WeatherDisplay:10.37,2013-12-23 14:52:00,
2013-12-24 01:57:00,74.0,66.0,29.77,WSW,238,3.0,7.0,76,0.00,CLR,,0.00,WeatherDisplay:10.37,2013-12-23 14:57:00,
2013-12-24 02:02:00,73.9,66.3,29.77,SW,220,3.0,8.0,77,0.00,CLR,,0.00,WeatherDisplay:10.37,2013-12-23 15:02:00,
2013-12-24 02:07:00,73.9,66.3,29.77,SSE,166,3.0,7.0,77,0.00,CLR,,0.00,WeatherDisplay:10.37,2013-12-23 15:07:00,
2013-12-24 02:12:00,73.8,66.1,29.76,South,190,5.0,10.0,77,0.00,CLR,,0.00,WeatherDisplay:10.37,2013-12-23 15:12:00,
2013-12-24 02:17:00,73.6,65.9,29.77,SSW,204,0.0,8.0,77,0.00,CLR,,0.00,WeatherDisplay:10.37,2013-12-23 15:17:00,
2013-12-24 02:22:00,73.6,65.9,29.77,SSW,208,3.0,6.0,77,0.00,CLR,,0.00,WeatherDisplay:10.37,2013-12-23 15:22:00,
2013-12-24 02:27:00,73.4,65.7,29.77,SW,216,5.0,12.0,77,0.00,CLR,,0.00,WeatherDisplay:10.37,2013-12-23 15:27:00,
2013-12-24 02:32:00,73.2,65.6,29.77,SW,221,0.0,9.0,77,0.00,CLR,,0.00,WeatherDisplay:10.37,2013-12-23 15:32:00,
2013-12-24 02:37:00,73.2,65.6,29.78,SW,224,3.0,7.0,77,0.00,CLR,,0.00,WeatherDisplay:10.37,2013-12-23 15:37:00,
2013-12-24 02:42:00,73.2,65.6,29.78,SSW,197,2.0,8.0,77,0.00,CLR,,0.00,WeatherDisplay:10.37,2013-12-23 15:42:00,
2013-12-24 02:47:00,73.2,65.6,29.78,South,180,2.0,5.0,77,0.00,CLR,,0.00,WeatherDisplay:10.37,2013-12-23 15:47:00,
2013-12-24 02:52:00,73.2,65.6,29.78,South,185,1.0,12.0,77,0.02,RA,,0.02,WeatherDisplay:10.37,2013-12-23 15:52:00,
2013-12-24 02:57:00,73.0,65.4,29.77,South,185,3.0,9.0,77,0.00,RA,,0.02,WeatherDisplay:10.37,2013-12-23 15:57:00,
2013-12-24 03:02:00,72.8,65.2,29.77,South,183,1.0,9.0,77,0.00,,,0.02,WeatherDisplay:10.37,2013-12-23 16:02:00,
2013-12-24 03:07:00,72.7,65.4,29.78,SSW,192,3.0,7.0,78,0.00,,,0.02,WeatherDisplay:10.37,2013-12-23 16:07:00,
2013-12-24 03:12:00,72.7,65.4,29.78,SW,215,1.0,7.0,78,0.00,,,0.02,WeatherDisplay:10.37,2013-12-23 16:12:00,
2013-12-24 03:17:00,72.4,65.5,29.78,SW,214,2.0,8.0,79,0.00,,,0.02,WeatherDisplay:10.37,2013-12-23 16:17:00,
2013-12-24 03:22:00,72.3,65.4,29.78,South,185,6.0,13.0,79,0.02,RA,,0.04,WeatherDisplay:10.37,2013-12-23 16:22:00,
2013-12-24 03:27:00,72.1,65.3,29.78,South,187,3.0,12.0,79,0.00,RA,,0.04,WeatherDisplay:10.37,2013-12-23 16:27:00,
2013-12-24 03:32:00,72.0,65.1,29.78,SSW,204,2.0,8.0,79,0.00,,,0.04,WeatherDisplay:10.37,2013-12-23 16:32:00,
2013-12-24 03:37:00,72.0,65.1,29.78,SW,220,3.0,6.0,79,0.00,,,0.04,WeatherDisplay:10.37,2013-12-23 16:37:00,
2013-12-24 03:42:00,71.9,65.0,29.78,SW,216,7.0,9.0,79,0.00,,,0.04,WeatherDisplay:10.37,2013-12-23 16:42:00,
2013-12-24 03:47:00,71.8,64.9,29.78,South,188,3.0,9.0,79,0.00,,,0.04,WeatherDisplay:10.37,2013-12-23 16:47:00,
2013-12-24 03:52:00,71.8,64.9,29.78,SSE,166,3.0,7.0,79,0.00,,,0.04,WeatherDisplay:10.37,2013-12-23 16:52:00,
2013-12-24 03:57:00,71.8,64.9,29.78,South,177,3.0,10.0,79,0.00,,,0.04,WeatherDisplay:10.37,2013-12-23 16:57:00,
2013-12-24 04:02:00,71.8,64.9,29.78,South,191,2.0,6.0,79,0.00,,,0.04,WeatherDisplay:10.37,2013-12-23 17:02:00,
2013-12-24 04:07:00,71.8,64.9,29.79,SSW,196,3.0,7.0,79,0.00,,,0.04,WeatherDisplay:10.37,2013-12-23 17:07:00,
2013-12-24 04:12:00,71.8,64.9,29.79,SSW,204,2.0,6.0,79,0.00,,,0.04,WeatherDisplay:10.37,2013-12-23 17:12:00,
2013-12-24 04:17:00,71.8,64.9,29.79,SSW,205,3.0,6.0,79,0.00,,,0.04,WeatherDisplay:10.37,2013-12-23 17:17:00,
2013-12-24 04:22:00,71.8,64.9,29.79,SSW,195,1.0,8.0,79,0.00,CLR,,0.04,WeatherDisplay:10.37,2013-12-23 17:22:00,
2013-12-24 04:27:00,71.8,64.9,29.79,SSW,195,2.0,8.0,79,0.00,CLR,,0.04,WeatherDisplay:10.37,2013-12-23 17:27:00,
2013-12-24 04:32:00,71.8,64.9,29.80,SSW,208,2.0,6.0,79,0.00,CLR,,0.04,WeatherDisplay:10.37,2013-12-23 17:32:00,
2013-12-24 04:37:00,71.6,64.7,29.80,SW,215,2.0,7.0,79,0.00,CLR,,0.04,WeatherDisplay:10.37,2013-12-23 17:37:00,
2013-12-24 04:42:00,71.6,64.7,29.80,SW,221,1.0,4.0,79,0.00,CLR,,0.04,WeatherDisplay:10.37,2013-12-23 17:42:00,
2013-12-24 04:47:00,71.4,64.6,29.80,SW,215,1.0,6.0,79,0.00,CLR,,0.04,WeatherDisplay:10.37,2013-12-23 17:47:00,
2013-12-24 04:52:00,71.4,64.6,29.80,SSW,203,0.0,4.0,79,0.00,CLR,,0.04,WeatherDisplay:10.37,2013-12-23 17:52:00,
2013-12-24 04:57:00,71.5,64.6,29.80,SSW,205,3.0,15.0,79,0.00,CLR,,0.04,WeatherDisplay:10.37,2013-12-23 17:57:00,
2013-12-24 05:02:00,71.4,64.6,29.80,SSW,206,2.0,15.0,79,0.00,CLR,,0.04,WeatherDisplay:10.37,2013-12-23 18:02:00,
2013-12-24 05:07:00,71.4,64.6,29.81,SSW,198,1.0,5.0,79,0.00,CLR,,0.04,WeatherDisplay:10.37,2013-12-23 18:07:00,
2013-12-24 05:12:00,71.4,64.6,29.81,South,174,0.0,3.0,79,0.02,RA,,0.06,WeatherDisplay:10.37,2013-12-23 18:12:00,
2013-12-24 05:17:00,71.4,64.6,29.81,SSE,151,1.0,6.0,79,0.00,RA,,0.06,WeatherDisplay:10.37,2013-12-23 18:17:00,
2013-12-24 05:22:00,71.4,64.5,29.81,South,185,2.0,6.0,79,0.00,,,0.06,WeatherDisplay:10.37,2013-12-23 18:22:00,
2013-12-24 05:27:00,71.2,64.4,29.82,SSW,195,2.0,6.0,79,0.00,,,0.06,WeatherDisplay:10.37,2013-12-23 18:27:00,
2013-12-24 05:32:00,71.2,64.4,29.82,South,183,0.0,6.0,79,0.00,,,0.06,WeatherDisplay:10.37,2013-12-23 18:32:00,
2013-12-24 05:37:00,71.2,64.8,29.82,SSE,164,1.0,3.0,80,0.00,,,0.06,WeatherDisplay:10.37,2013-12-23 18:37:00,
2013-12-24 05:42:00,71.2,64.8,29.82,ESE,116,1.0,5.0,80,0.00,,,0.06,WeatherDisplay:10.37,2013-12-23 18:42:00,
2013-12-24 05:52:00,70.9,64.4,29.83,South,185,2.0,4.0,80,0.00,,,0.06,WeatherDisplay:10.37,2013-12-23 18:52:00,
2013-12-24 05:57:00,70.9,64.4,29.83,SSW,202,0.0,4.0,80,0.00,,,0.06,WeatherDisplay:10.37,2013-12-23 18:57:00,
2013-12-24 06:02:00,70.9,64.4,29.84,SSW,194,2.0,5.0,80,0.02,RA,,0.08,WeatherDisplay:10.37,2013-12-23 19:02:00,
2013-12-24 06:07:00,70.9,64.4,29.84,South,191,2.0,7.0,80,0.00,RA,,0.08,WeatherDisplay:10.37,2013-12-23 19:07:00,
2013-12-24 06:12:00,70.8,64.3,29.84,South,176,1.0,5.0,80,0.00,,,0.08,WeatherDisplay:10.37,2013-12-23 19:12:00,
2013-12-24 06:17:00,70.7,64.2,29.84,South,169,2.0,7.0,80,0.02,RA,,0.10,WeatherDisplay:10.37,2013-12-23 19:17:00,
2013-12-24 06:22:00,70.5,64.0,29.84,South,191,1.0,7.0,80,0.00,RA,,0.10,WeatherDisplay:10.37,2013-12-23 19:22:00,
2013-12-24 06:27:00,70.3,63.9,29.85,South,191,1.0,5.0,80,0.00,,,0.10,WeatherDisplay:10.37,2013-12-23 19:27:00,
2013-12-24 06:32:00,70.3,64.2,29.85,SSW,199,1.0,5.0,81,0.00,,,0.10,WeatherDisplay:10.37,2013-12-23 19:32:00,
2013-12-24 06:37:00,70.3,64.2,29.85,SSW,204,5.0,7.0,81,0.02,RA,,0.12,WeatherDisplay:10.37,2013-12-23 19:37:00,
2013-12-24 06:42:00,70.2,64.1,29.85,SSW,200,0.0,7.0,81,0.00,RA,,0.12,WeatherDisplay:10.37,2013-12-23 19:42:00,
2013-12-24 06:47:00,70.2,64.1,29.85,South,191,1.0,5.0,81,0.00,,,0.12,WeatherDisplay:10.37,2013-12-23 19:47:00,
2013-12-24 06:52:00,70.1,64.0,29.85,South,188,0.0,5.0,81,0.00,,,0.12,WeatherDisplay:10.37,2013-12-23 19:52:00,
2013-12-24 06:57:00,70.0,63.9,29.86,South,169,2.0,5.0,81,0.00,,,0.12,WeatherDisplay:10.37,2013-12-23 19:57:00,
2013-12-24 07:02:00,70.0,63.9,29.86,South,175,2.0,7.0,81,0.02,RA,,0.14,WeatherDisplay:10.37,2013-12-23 20:02:00,
2013-12-24 07:07:00,70.0,63.9,29.86,SSW,200,1.0,10.0,81,0.00,RA,,0.14,WeatherDisplay:10.37,2013-12-23 20:07:00,
2013-12-24 07:12:00,69.8,63.7,29.87,South,191,2.0,8.0,81,0.00,,,0.14,WeatherDisplay:10.37,2013-12-23 20:12:00,
2013-12-24 07:17:00,69.6,63.5,29.86,South,178,1.0,5.0,81,0.00,,,0.14,WeatherDisplay:10.37,2013-12-23 20:17:00,
2013-12-24 07:22:00,69.6,63.5,29.87,SSW,195,1.0,5.0,81,0.02,RA,,0.16,WeatherDisplay:10.37,2013-12-23 20:22:00,
2013-12-24 07:27:00,69.4,63.4,29.87,SSW,207,3.0,7.0,81,0.00,RA,,0.16,WeatherDisplay:10.37,2013-12-23 20:27:00,
2013-12-24 07:32:00,69.6,63.5,29.88,SSW,197,1.0,5.0,81,0.00,,,0.16,WeatherDisplay:10.37,2013-12-23 20:32:00,
2013-12-24 07:37:00,69.5,63.4,29.88,SSW,203,2.0,7.0,81,0.00,,,0.16,WeatherDisplay:10.37,2013-12-23 20:37:00,
2013-12-24 07:42:00,69.4,63.7,29.88,SSW,203,2.0,8.0,82,0.00,,,0.16,WeatherDisplay:10.37,2013-12-23 20:42:00,
2013-12-24 07:47:00,69.4,63.7,29.88,South,183,2.0,8.0,82,0.00,,,0.16,WeatherDisplay:10.37,2013-12-23 20:47:00,
2013-12-24 07:52:00,69.4,63.7,29.88,SSW,193,1.0,7.0,82,0.00,,,0.16,WeatherDisplay:10.37,2013-12-23 20:52:00,
2013-12-24 07:57:00,69.4,63.6,29.88,SW,217,2.0,6.0,82,0.00,,,0.16,WeatherDisplay:10.37,2013-12-23 20:57:00,
2013-12-24 08:02:00,69.3,63.5,29.89,SSW,197,1.0,6.0,82,0.02,RA,,0.18,WeatherDisplay:10.37,2013-12-23 21:02:00,
2013-12-24 08:07:00,69.3,63.5,29.88,SSW,201,5.0,8.0,82,0.00,RA,,0.18,WeatherDisplay:10.37,2013-12-23 21:07:00,
2013-12-24 08:12:00,69.1,63.4,29.89,SSW,206,3.0,11.0,82,0.00,,,0.18,WeatherDisplay:10.37,2013-12-23 21:12:00,
2013-12-24 08:17:00,68.9,63.2,29.89,SSW,194,1.0,8.0,82,0.00,,,0.18,WeatherDisplay:10.37,2013-12-23 21:17:00,
2013-12-24 08:22:00,68.8,63.1,29.89,South,191,2.0,7.0,82,0.00,,,0.18,WeatherDisplay:10.37,2013-12-23 21:22:00,
2013-12-24 08:27:00,68.9,63.2,29.89,SSW,203,3.0,7.0,82,0.00,,,0.18,WeatherDisplay:10.37,2013-12-23 21:27:00,
2013-12-24 08:37:00,68.9,63.2,29.90,SSW,196,3.0,8.0,82,0.00,,,0.18,WeatherDisplay:10.37,2013-12-23 21:37:00,
2013-12-24 08:42:00,68.9,63.2,29.90,South,185,1.0,6.0,82,0.00,,,0.18,WeatherDisplay:10.37,2013-12-23 21:42:00,
2013-12-24 08:47:00,68.9,63.2,29.90,South,177,5.0,7.0,82,0.02,RA,,0.20,WeatherDisplay:10.37,2013-12-23 21:47:00,
2013-12-24 08:52:00,68.7,63.0,29.91,SSW,195,3.0,6.0,82,0.00,RA,,0.20,WeatherDisplay:10.37,2013-12-23 21:52:00,
2013-12-24 08:57:00,68.7,63.0,29.91,SSW,198,2.0,9.0,82,0.00,,,0.20,WeatherDisplay:10.37,2013-12-23 21:57:00,
2013-12-24 09:02:00,68.7,63.0,29.91,South,191,3.0,9.0,82,0.00,,,0.20,WeatherDisplay:10.37,2013-12-23 22:02:00,
2013-12-24 09:07:00,68.5,62.8,29.91,SSW,192,2.0,8.0,82,0.00,,,0.20,WeatherDisplay:10.37,2013-12-23 22:07:00,
2013-12-24 09:12:00,68.5,62.8,29.91,SSW,201,1.0,6.0,82,0.00,,,0.20,WeatherDisplay:10.37,2013-12-23 22:12:00,
2013-12-24 09:17:00,68.5,62.5,29.91,SSW,194,1.0,8.0,81,0.00,,,0.20,WeatherDisplay:10.37,2013-12-23 22:17:00,
2013-12-24 09:22:00,68.5,62.8,29.91,SSE,157,0.0,6.0,82,0.00,,,0.20,WeatherDisplay:10.37,2013-12-23 22:22:00,
2013-12-24 09:27:00,68.5,62.5,29.91,South,174,0.0,6.0,81,0.00,,,0.20,WeatherDisplay:10.37,2013-12-23 22:27:00,
2013-12-24 09:32:00,68.5,62.5,29.91,South,185,0.0,3.0,81,0.00,,,0.20,WeatherDisplay:10.37,2013-12-23 22:32:00,
2013-12-24 09:37:00,68.7,62.7,29.91,South,191,2.0,5.0,81,0.00,,,0.20,WeatherDisplay:10.37,2013-12-23 22:37:00,
2013-12-24 09:42:00,68.7,62.7,29.91,SW,215,2.0,7.0,81,0.00,,,0.20,WeatherDisplay:10.37,2013-12-23 22:42:00,
2013-12-24 09:47:00,68.8,63.1,29.91,SSW,198,2.0,7.0,82,0.00,CLR,,0.20,WeatherDisplay:10.37,2013-12-23 22:47:00,
2013-12-24 09:52:00,68.7,63.0,29.91,South,190,1.0,7.0,82,0.00,CLR,,0.20,WeatherDisplay:10.37,2013-12-23 22:52:00,
2013-12-24 09:57:00,69.0,63.3,29.91,South,188,3.0,7.0,82,0.00,CLR,,0.20,WeatherDisplay:10.37,2013-12-23 22:57:00,
2013-12-24 10:02:00,69.1,63.4,29.91,SSW,193,2.0,6.0,82,0.00,CLR,,0.20,WeatherDisplay:10.37,2013-12-23 23:02:00,
2013-12-24 10:07:00,69.1,63.4,29.91,SSW,200,2.0,7.0,82,0.00,CLR,,0.20,WeatherDisplay:10.37,2013-12-23 23:07:00,
2013-12-24 10:12:00,69.1,63.0,29.91,SSW,201,2.0,8.0,81,0.00,CLR,,0.20,WeatherDisplay:10.37,2013-12-23 23:12:00,
2013-12-24 10:17:00,69.1,63.0,29.91,South,184,2.0,6.0,81,0.00,CLR,,0.20,WeatherDisplay:10.37,2013-12-23 23:17:00,
2013-12-24 10:22:00,69.1,62.6,29.91,South,190,5.0,7.0,80,0.00,CLR,,0.20,WeatherDisplay:10.37,2013-12-23 23:22:00,
2013-12-24 10:27:00,69.1,62.6,29.91,SSW,210,0.0,7.0,80,0.00,CLR,,0.20,WeatherDisplay:10.37,2013-12-23 23:27:00,
2013-12-24 10:32:00,69.0,62.5,29.91,SSW,199,1.0,6.0,80,0.00,CLR,,0.20,WeatherDisplay:10.37,2013-12-23 23:32:00,
2013-12-24 10:37:00,69.0,62.6,29.92,South,177,3.0,7.0,80,0.00,CLR,,0.20,WeatherDisplay:10.37,2013-12-23 23:37:00,
2013-12-24 10:42:00,69.1,62.6,29.91,South,181,2.0,7.0,80,0.00,CLR,,0.20,WeatherDisplay:10.37,2013-12-23 23:42:00,
2013-12-24 10:47:00,69.2,62.8,29.91,South,184,1.0,3.0,80,0.02,RA,,0.22,WeatherDisplay:10.37,2013-12-23 23:47:00,
2013-12-24 10:52:00,69.4,63.0,29.91,SSE,154,1.0,7.0,80,0.00,RA,,0.22,WeatherDisplay:10.37,2013-12-23 23:52:00,
2013-12-24 10:57:00,69.4,62.6,29.91,South,182,1.0,5.0,79,0.00,,,0.22,WeatherDisplay:10.37,2013-12-23 23:57:00,
2013-12-24 11:02:00,69.6,62.8,29.92,South,189,2.0,7.0,79,0.00,,,0.22,WeatherDisplay:10.37,2013-12-24 00:02:00,
2013-12-24 11:07:00,69.6,62.5,29.92,SSW,203,1.0,8.0,78,0.00,,,0.22,WeatherDisplay:10.37,2013-12-24 00:07:00,
2013-12-24 11:12:00,69.9,62.7,29.92,South,174,1.0,3.0,78,0.00,,,0.22,WeatherDisplay:10.37,2013-12-24 00:12:00,
2013-12-24 11:17:00,70.0,62.4,29.92,SE,143,2.0,6.0,77,0.00,,,0.22,WeatherDisplay:10.37,2013-12-24 00:17:00,
2013-12-24 11:22:00,70.2,63.0,29.92,South,188,1.0,3.0,78,0.00,,,0.22,WeatherDisplay:10.37,2013-12-24 00:22:00,
2013-12-24 11:27:00,70.3,63.2,29.92,SW,215,2.0,7.0,78,0.00,,,0.22,WeatherDisplay:10.37,2013-12-24 00:27:00,
2013-12-24 11:32:00,70.5,63.3,29.92,SSW,194,2.0,7.0,78,0.00,,,0.22,WeatherDisplay:10.37,2013-12-24 00:32:00,
2013-12-24 11:37:00,70.7,63.1,29.92,South,190,1.0,10.0,77,0.00,,,0.22,WeatherDisplay:10.37,2013-12-24 00:37:00,
2013-12-24 11:42:00,70.8,62.9,29.92,SSW,196,1.0,9.0,76,0.00,,,0.22,WeatherDisplay:10.37,2013-12-24 00:42:00,
2013-12-24 11:47:00,70.8,62.8,29.92,South,179,3.0,6.0,76,0.00,CLR,,0.22,WeatherDisplay:10.37,2013-12-24 00:47:00,
2013-12-24 11:52:00,70.9,62.6,29.92,South,170,0.0,5.0,75,0.00,CLR,,0.22,WeatherDisplay:10.37,2013-12-24 00:52:00,
2013-12-24 11:57:00,70.9,62.6,29.92,SW,214,1.0,9.0,75,0.00,CLR,,0.22,WeatherDisplay:10.37,2013-12-24 00:57:00,
2013-12-24 12:02:00,71.0,62.3,29.92,SW,224,1.0,9.0,74,0.00,CLR,,0.22,WeatherDisplay:10.37,2013-12-24 01:02:00,
2013-12-24 12:07:00,71.1,62.4,29.92,SSW,204,2.0,5.0,74,0.00,CLR,,0.22,WeatherDisplay:10.37,2013-12-24 01:07:00,
2013-12-24 12:12:00,71.2,62.5,29.92,SSW,201,5.0,9.0,74,0.00,CLR,,0.22,WeatherDisplay:10.37,2013-12-24 01:12:00,
2013-12-24 12:17:00,71.3,62.6,29.92,SSW,210,3.0,9.0,74,0.00,CLR,,0.22,WeatherDisplay:10.37,2013-12-24 01:17:00,
2013-12-24 12:22:00,71.4,62.7,29.92,SSW,207,3.0,8.0,74,0.00,CLR,,0.22,WeatherDisplay:10.37,2013-12-24 01:22:00,
2013-12-24 12:32:00,71.4,62.7,29.93,SSW,201,2.0,7.0,74,0.00,CLR,,0.22,WeatherDisplay:10.37,2013-12-24 01:32:00,
2013-12-24 12:37:00,71.2,62.5,29.92,SW,221,1.0,6.0,74,0.00,CLR,,0.22,WeatherDisplay:10.37,2013-12-24 01:37:00,
2013-12-24 12:42:00,70.9,62.6,29.92,NNE,29,0.0,2.0,75,0.00,CLR,,0.22,WeatherDisplay:10.37,2013-12-24 01:42:00,
2013-12-24 12:47:00,70.9,62.6,29.92,East,87,0.0,2.0,75,0.00,CLR,,0.22,WeatherDisplay:10.37,2013-12-24 01:47:00,
2013-12-24 12:52:00,70.7,62.4,29.92,ESE,121,0.0,2.0,75,0.00,CLR,,0.22,WeatherDisplay:10.37,2013-12-24 01:52:00,
2013-12-24 12:57:00,70.6,62.3,29.92,SSW,211,0.0,2.0,75,0.00,CLR,,0.22,WeatherDisplay:10.37,2013-12-24 01:57:00,
2013-12-24 13:02:00,70.9,62.9,29.91,WSW,241,1.0,4.0,76,0.00,CLR,,0.22,WeatherDisplay:10.37,2013-12-24 02:02:00,
2013-12-24 13:07:00,70.9,62.6,29.91,SW,217,5.0,8.0,75,0.00,CLR,,0.22,WeatherDisplay:10.37,2013-12-24 02:07:00,
2013-12-24 13:12:00,71.2,62.9,29.91,SSW,194,3.0,7.0,75,0.00,CLR,,0.22,WeatherDisplay:10.37,2013-12-24 02:12:00,
2013-12-24 13:17:00,71.4,62.7,29.91,SSW,193,3.0,7.0,74,0.00,CLR,,0.22,WeatherDisplay:10.37,2013-12-24 02:17:00,
2013-12-24 13:22:00,71.4,62.3,29.92,South,189,2.0,7.0,73,0.00,CLR,,0.22,WeatherDisplay:10.37,2013-12-24 02:22:00,
2013-12-24 13:27:00,71.4,62.3,29.92,South,183,2.0,5.0,73,0.00,CLR,,0.22,WeatherDisplay:10.37,2013-12-24 02:27:00,
2013-12-24 13:32:00,71.8,62.7,29.91,SW,217,2.0,6.0,73,0.00,CLR,,0.22,WeatherDisplay:10.37,2013-12-24 02:32:00,
2013-12-24 13:37:00,71.7,62.2,29.91,SW,228,2.0,10.0,72,0.00,CLR,,0.22,WeatherDisplay:10.37,2013-12-24 02:37:00,
2013-12-24 13:42:00,71.7,62.2,29.91,SSW,201,1.0,6.0,72,0.00,CLR,,0.22,WeatherDisplay:10.37,2013-12-24 02:42:00,
2013-12-24 13:52:00,71.6,62.1,29.91,SSW,203,2.0,6.0,72,0.00,CLR,,0.22,WeatherDisplay:10.37,2013-12-24 02:52:00,
2013-12-24 13:57:00,71.4,61.5,29.91,SSW,199,3.0,10.0,71,0.00,CLR,,0.22,WeatherDisplay:10.37,2013-12-24 02:57:00,
2013-12-24 14:02:00,71.4,61.5,29.92,SW,222,2.0,7.0,71,0.00,CLR,,0.22,WeatherDisplay:10.37,2013-12-24 03:02:00,
2013-12-24 14:07:00,71.3,61.4,29.91,SSW,210,0.0,5.0,71,0.00,CLR,,0.22,WeatherDisplay:10.37,2013-12-24 03:07:00,
2013-12-24 14:12:00,71.4,61.5,29.91,South,174,2.0,5.0,71,0.00,CLR,,0.22,WeatherDisplay:10.37,2013-12-24 03:12:00,
2013-12-24 14:17:00,71.4,61.5,29.91,SSW,203,5.0,8.0,71,0.00,CLR,,0.22,WeatherDisplay:10.37,2013-12-24 03:17:00,
2013-12-24 14:22:00,71.3,61.8,29.91,WSW,255,1.0,3.0,72,0.00,CLR,,0.22,WeatherDisplay:10.37,2013-12-24 03:22:00,
2013-12-24 14:27:00,71.2,61.7,29.91,West,273,2.0,5.0,72,0.00,CLR,,0.22,WeatherDisplay:10.37,2013-12-24 03:27:00,
2013-12-24 14:32:00,71.2,61.7,29.92,WSW,253,2.0,8.0,72,0.00,CLR,,0.22,WeatherDisplay:10.37,2013-12-24 03:32:00,
2013-12-24 14:37:00,71.2,61.7,29.92,WSW,247,3.0,5.0,72,0.00,CLR,,0.22,WeatherDisplay:10.37,2013-12-24 03:37:00,
2013-12-24 14:42:00,71.2,61.7,29.92,SSW,213,5.0,9.0,72,0.00,CLR,,0.22,WeatherDisplay:10.37,2013-12-24 03:42:00,
2013-12-24 14:47:00,71.1,61.6,29.91,SW,221,3.0,7.0,72,0.00,CLR,,0.22,WeatherDisplay:10.37,2013-12-24 03:47:00,
2013-12-24 14:52:00,71.2,62.1,29.91,SSW,200,2.0,7.0,73,0.00,CLR,,0.22,WeatherDisplay:10.37,2013-12-24 03:52:00,
2013-12-24 14:57:00,71.2,61.7,29.91,SSW,194,2.0,7.0,72,0.00,CLR,,0.22,WeatherDisplay:10.37,2013-12-24 03:57:00,
2013-12-24 15:02:00,71.4,61.9,29.91,SSW,192,2.0,6.0,72,0.00,CLR,,0.22,WeatherDisplay:10.37,2013-12-24 04:02:00,
2013-12-24 15:07:00,71.2,61.7,29.91,SSW,208,3.0,6.0,72,0.00,CLR,,0.22,WeatherDisplay:10.37,2013-12-24 04:07:00,
2013-12-24 15:12:00,71.2,61.7,29.92,SW,216,2.0,9.0,72,0.00,CLR,,0.22,WeatherDisplay:10.37,2013-12-24 04:12:00,
2013-12-24 15:17:00,71.2,61.7,29.91,SSW,200,3.0,9.0,72,0.00,CLR,,0.22,WeatherDisplay:10.37,2013-12-24 04:17:00,
2013-12-24 15:22:00,71.2,61.7,29.91,South,190,2.0,7.0,72,0.00,CLR,,0.22,WeatherDisplay:10.37,2013-12-24 04:22:00,
2013-12-24 15:27:00,71.2,61.7,29.91,SSW,202,3.0,9.0,72,0.00,CLR,,0.22,WeatherDisplay:10.37,2013-12-24 04:27:00,
2013-12-24 15:32:00,71.1,62.0,29.91,SSW,202,2.0,6.0,73,0.00,CLR,,0.22,WeatherDisplay:10.37,2013-12-24 04:32:00,
2013-12-24 15:37:00,71.2,62.1,29.91,SSW,203,1.0,5.0,73,0.00,CLR,,0.22,WeatherDisplay:10.37,2013-12-24 04:37:00,
2013-12-24 15:42:00,71.1,61.6,29.92,SSW,201,2.0,5.0,72,0.00,CLR,,0.22,WeatherDisplay:10.37,2013-12-24 04:42:00,
2013-12-24 15:47:00,71.2,61.7,29.92,SSW,200,1.0,4.0,72,0.00,CLR,,0.22,WeatherDisplay:10.37,2013-12-24 04:47:00,
2013-12-24 15:52:00,71.4,61.9,29.91,SSW,201,1.0,5.0,72,0.00,CLR,,0.22,WeatherDisplay:10.37,2013-12-24 04:52:00,
2013-12-24 15:57:00,71.4,61.9,29.91,SW,216,1.0,3.0,72,0.00,CLR,,0.22,WeatherDisplay:10.37,2013-12-24 04:57:00,
2013-12-24 16:02:00,71.8,62.3,29.90,WSW,237,1.0,4.0,72,0.00,CLR,,0.22,WeatherDisplay:10.37,2013-12-24 05:02:00,
2013-12-24 16:07:00,72.1,62.5,29.90,SW,234,0.0,2.0,72,0.00,CLR,,0.22,WeatherDisplay:10.37,2013-12-24 05:07:00,
2013-12-24 16:22:00,72.3,61.9,29.90,WSW,253,0.0,3.0,70,0.00,CLR,,0.22,WeatherDisplay:10.37,2013-12-24 05:22:00,
2013-12-24 16:27:00,72.2,61.9,29.90,WSW,256,2.0,7.0,70,0.00,CLR,,0.22,WeatherDisplay:10.37,2013-12-24 05:27:00,
2013-12-24 16:32:00,72.1,61.4,29.90,WSW,238,1.0,7.0,69,0.00,CLR,,0.22,WeatherDisplay:10.37,2013-12-24 05:32:00,
2013-12-24 16:37:00,72.3,61.5,29.90,SW,216,5.0,6.0,69,0.00,CLR,,0.22,WeatherDisplay:10.37,2013-12-24 05:37:00,
2013-12-24 16:42:00,72.1,61.4,29.90,SSW,196,5.0,7.0,69,0.00,CLR,,0.22,WeatherDisplay:10.37,2013-12-24 05:42:00,
2013-12-24 16:47:00,72.1,61.4,29.90,SW,215,1.0,8.0,69,0.00,CLR,,0.22,WeatherDisplay:10.37,2013-12-24 05:47:00,
2013-12-24 16:52:00,72.0,61.6,29.90,SW,229,2.0,6.0,70,0.00,CLR,,0.22,WeatherDisplay:10.37,2013-12-24 05:52:00,
2013-12-24 16:57:00,72.0,61.6,29.90,SW,230,3.0,6.0,70,0.00,CLR,,0.22,WeatherDisplay:10.37,2013-12-24 05:57:00,
2013-12-24 17:02:00,72.0,61.6,29.90,SW,220,2.0,5.0,70,0.00,CLR,,0.22,WeatherDisplay:10.37,2013-12-24 06:02:00,
2013-12-24 17:07:00,72.0,61.6,29.90,SW,217,3.0,7.0,70,0.00,CLR,,0.22,WeatherDisplay:10.37,2013-12-24 06:07:00,
2013-12-24 17:12:00,71.9,61.6,29.91,SW,233,2.0,5.0,70,0.00,CLR,,0.22,WeatherDisplay:10.37,2013-12-24 06:12:00,
2013-12-24 17:17:00,71.8,61.9,29.91,SW,223,1.0,3.0,71,0.00,CLR,,0.22,WeatherDisplay:10.37,2013-12-24 06:17:00,
2013-12-24 17:22:00,71.8,61.9,29.91,SSW,199,2.0,3.0,71,0.00,CLR,,0.22,WeatherDisplay:10.37,2013-12-24 06:22:00,
2013-12-24 17:27:00,71.8,61.9,29.91,SSW,212,3.0,13.0,71,0.00,CLR,,0.22,WeatherDisplay:10.37,2013-12-24 06:27:00,
2013-12-24 17:37:00,72.0,62.0,29.91,SSW,199,1.0,4.0,71,0.00,CLR,,0.22,WeatherDisplay:10.37,2013-12-24 06:37:00,
2013-12-24 17:42:00,72.0,62.0,29.91,SSW,213,2.0,6.0,71,0.00,CLR,,0.22,WeatherDisplay:10.37,2013-12-24 06:42:00,
2013-12-24 17:47:00,72.0,62.1,29.91,SSW,202,1.0,4.0,71,0.00,CLR,,0.22,WeatherDisplay:10.37,2013-12-24 06:47:00,
2013-12-24 17:52:00,72.0,62.1,29.92,South,174,1.0,4.0,71,0.00,CLR,,0.22,WeatherDisplay:10.37,2013-12-24 06:52:00,
2013-12-24 17:57:00,72.1,62.2,29.91,SSW,195,0.0,3.0,71,0.00,CLR,,0.22,WeatherDisplay:10.37,2013-12-24 06:57:00,
2013-12-24 18:02:00,72.1,62.2,29.92,SW,214,2.0,5.0,71,0.00,CLR,,0.22,WeatherDisplay:10.37,2013-12-24 07:02:00,
2013-12-24 18:07:00,72.1,61.8,29.92,SW,216,2.0,5.0,70,0.00,CLR,,0.22,WeatherDisplay:10.37,2013-12-24 07:07:00,
2013-12-24 18:12:00,72.1,61.8,29.92,SSW,203,3.0,4.0,70,0.00,CLR,,0.22,WeatherDisplay:10.37,2013-12-24 07:12:00,
2013-12-24 18:17:00,72.3,62.4,29.92,SSW,199,1.0,3.0,71,0.00,CLR,,0.22,WeatherDisplay:10.37,2013-12-24 07:17:00,
2013-12-24 18:22:00,72.4,62.1,29.91,SSW,202,2.0,5.0,70,0.00,CLR,,0.22,WeatherDisplay:10.37,2013-12-24 07:22:00,
2013-12-24 18:27:00,72.4,62.0,29.92,SSW,199,2.0,5.0,70,0.00,CLR,,0.22,WeatherDisplay:10.37,2013-12-24 07:27:00,
2013-12-24 18:32:00,72.4,62.1,29.92,SSW,203,1.0,5.0,70,0.00,CLR,,0.22,WeatherDisplay:10.37,2013-12-24 07:32:00,
2013-12-24 18:37:00,72.3,62.0,29.92,SW,214,1.0,3.0,70,0.00,CLR,,0.22,WeatherDisplay:10.37,2013-12-24 07:37:00,
2013-12-24 18:42:00,72.1,61.8,29.92,SSW,201,0.0,5.0,70,0.00,CLR,,0.22,WeatherDisplay:10.37,2013-12-24 07:42:00,
2013-12-24 18:47:00,72.1,61.8,29.92,SSW,202,0.0,3.0,70,0.00,CLR,,0.22,WeatherDisplay:10.37,2013-12-24 07:47:00,
2013-12-24 18:52:00,72.0,61.6,29.92,SSW,210,1.0,4.0,70,0.00,CLR,,0.22,WeatherDisplay:10.37,2013-12-24 07:52:00,
2013-12-24 18:57:00,71.9,61.6,29.92,SSW,197,1.0,3.0,70,0.00,CLR,,0.22,WeatherDisplay:10.37,2013-12-24 07:57:00,
2013-12-24 19:02:00,72.0,62.0,29.92,SSW,206,1.0,5.0,71,0.00,CLR,,0.22,WeatherDisplay:10.37,2013-12-24 08:02:00,
2013-12-24 19:07:00,71.9,62.0,29.92,SSW,212,1.0,6.0,71,0.00,CLR,,0.22,WeatherDisplay:10.37,2013-12-24 08:07:00,
2013-12-24 19:12:00,71.9,61.6,29.93,SW,217,0.0,4.0,70,0.00,CLR,,0.22,WeatherDisplay:10.37,2013-12-24 08:12:00,
2013-12-24 19:17:00,71.8,61.5,29.92,SW,232,0.0,3.0,70,0.00,CLR,,0.22,WeatherDisplay:10.37,2013-12-24 08:17:00,
2013-12-24 19:22:00,71.8,61.5,29.92,SSW,208,0.0,2.0,70,0.00,CLR,,0.22,WeatherDisplay:10.37,2013-12-24 08:22:00,
2013-12-24 19:27:00,71.7,61.8,29.93,South,186,0.0,2.0,71,0.00,CLR,,0.22,WeatherDisplay:10.37,2013-12-24 08:27:00,
2013-12-24 19:32:00,71.7,61.8,29.93,South,184,0.0,0.0,71,0.00,CLR,,0.22,WeatherDisplay:10.37,2013-12-24 08:32:00,
2013-12-24 19:37:00,71.7,61.8,29.94,SSW,201,0.0,3.0,71,0.00,CLR,,0.22,WeatherDisplay:10.37,2013-12-24 08:37:00,
2013-12-24 19:42:00,71.7,61.8,29.94,SSW,210,0.0,2.0,71,0.00,CLR,,0.22,WeatherDisplay:10.37,2013-12-24 08:42:00,
2013-12-24 19:47:00,71.8,61.9,29.94,SSW,201,0.0,1.0,71,0.00,CLR,,0.22,WeatherDisplay:10.37,2013-12-24 08:47:00,
2013-12-24 19:52:00,71.4,61.5,29.93,South,183,0.0,1.0,71,0.00,CLR,,0.22,WeatherDisplay:10.37,2013-12-24 08:52:00,
2013-12-24 19:57:00,71.4,61.5,29.94,South,175,0.0,1.0,71,0.00,CLR,,0.22,WeatherDisplay:10.37,2013-12-24 08:57:00,
2013-12-24 20:02:00,71.4,61.5,29.93,SSE,151,0.0,2.0,71,0.00,CLR,,0.22,WeatherDisplay:10.37,2013-12-24 09:02:00,
2013-12-24 20:07:00,71.4,61.5,29.94,SE,127,0.0,2.0,71,0.00,CLR,,0.22,WeatherDisplay:10.37,2013-12-24 09:07:00,
2013-12-24 20:12:00,71.2,61.4,29.94,South,173,0.0,4.0,71,0.00,CLR,,0.22,WeatherDisplay:10.37,2013-12-24 09:12:00,
2013-12-24 20:17:00,71.2,61.4,29.95,ESE,112,0.0,6.0,71,0.00,CLR,,0.22,WeatherDisplay:10.37,2013-12-24 09:17:00,
2013-12-24 20:22:00,71.2,61.7,29.95,East,80,0.0,2.0,72,0.00,CLR,,0.22,WeatherDisplay:10.37,2013-12-24 09:22:00,
2013-12-24 20:27:00,70.9,61.4,29.95,NE,37,1.0,8.0,72,0.00,CLR,,0.22,WeatherDisplay:10.37,2013-12-24 09:27:00,
2013-12-24 20:32:00,70.9,61.4,29.95,SSE,167,2.0,5.0,72,0.00,CLR,,0.22,WeatherDisplay:10.37,2013-12-24 09:32:00,
2013-12-24 20:37:00,70.7,61.6,29.95,SSW,203,3.0,6.0,73,0.00,CLR,,0.22,WeatherDisplay:10.37,2013-12-24 09:37:00,
2013-12-24 20:42:00,70.5,61.8,29.95,SSW,204,2.0,6.0,74,0.00,CLR,,0.22,WeatherDisplay:10.37,2013-12-24 09:42:00,
2013-12-24 20:47:00,70.3,61.7,29.95,SSW,198,2.0,5.0,74,0.00,CLR,,0.22,WeatherDisplay:10.37,2013-12-24 09:47:00,
2013-12-24 20:52:00,70.3,62.0,29.95,SSW,200,3.0,5.0,75,0.00,CLR,,0.22,WeatherDisplay:10.37,2013-12-24 09:52:00,
2013-12-24 20:57:00,70.2,61.9,29.95,SSW,206,3.0,5.0,75,0.00,CLR,,0.22,WeatherDisplay:10.37,2013-12-24 09:57:00,
2013-12-24 21:02:00,70.0,61.7,29.95,SSW,200,1.0,5.0,75,0.00,CLR,,0.22,WeatherDisplay:10.37,2013-12-24 10:02:00,
2013-12-24 21:07:00,70.0,61.7,29.95,South,191,2.0,4.0,75,0.00,CLR,,0.22,WeatherDisplay:10.37,2013-12-24 10:07:00,
2013-12-24 21:12:00,70.0,61.7,29.95,SSW,195,3.0,5.0,75,0.00,CLR,,0.22,WeatherDisplay:10.37,2013-12-24 10:12:00,
2013-12-24 21:17:00,70.0,61.7,29.95,SSW,202,1.0,4.0,75,0.00,CLR,,0.22,WeatherDisplay:10.37,2013-12-24 10:17:00,
2013-12-24 21:22:00,70.0,61.7,29.95,SSW,207,1.0,4.0,75,0.00,CLR,,0.22,WeatherDisplay:10.37,2013-12-24 10:22:00,
2013-12-24 21:27:00,70.0,61.7,29.96,SSW,201,3.0,6.0,75,0.00,CLR,,0.22,WeatherDisplay:10.37,2013-12-24 10:27:00,
2013-12-24 21:32:00,69.8,61.5,29.95,SSW,197,0.0,4.0,75,0.00,CLR,,0.22,WeatherDisplay:10.37,2013-12-24 10:32:00,
2013-12-24 21:37:00,69.7,61.4,29.96,SSW,203,1.0,3.0,75,0.00,CLR,,0.22,WeatherDisplay:10.37,2013-12-24 10:37:00,
2013-12-24 21:42:00,69.7,61.4,29.96,SSW,209,0.0,4.0,75,0.00,CLR,,0.22,WeatherDisplay:10.37,2013-12-24 10:42:00,
2013-12-24 21:52:00,69.6,61.3,29.96,South,189,0.0,0.0,75,0.00,CLR,,0.22,WeatherDisplay:10.37,2013-12-24 10:52:00,
2013-12-24 21:57:00,69.6,61.3,29.96,South,173,0.0,0.0,75,0.00,CLR,,0.22,WeatherDisplay:10.37,2013-12-24 10:57:00,
2013-12-24 22:02:00,69.6,61.3,29.96,SE,144,0.0,0.0,75,0.00,CLR,,0.22,WeatherDisplay:10.37,2013-12-24 11:02:00,
2013-12-24 22:07:00,69.6,61.3,29.96,SSE,152,0.0,0.0,75,0.00,CLR,,0.22,WeatherDisplay:10.37,2013-12-24 11:07:00,
2013-12-24 22:12:00,69.4,61.2,29.96,South,172,0.0,0.0,75,0.00,CLR,,0.22,WeatherDisplay:10.37,2013-12-24 11:12:00,
2013-12-24 22:17:00,69.4,61.2,29.96,South,178,0.0,0.0,75,0.00,CLR,,0.22,WeatherDisplay:10.37,2013-12-24 11:17:00,
2013-12-24 22:22:00,69.4,61.5,29.96,SE,139,1.0,6.0,76,0.00,CLR,,0.22,WeatherDisplay:10.37,2013-12-24 11:22:00,
2013-12-24 22:27:00,69.4,61.5,29.96,East,79,0.0,6.0,76,0.00,CLR,,0.22,WeatherDisplay:10.37,2013-12-24 11:27:00,
2013-12-24 22:32:00,69.3,61.7,29.96,East,98,0.0,2.0,77,0.00,CLR,,0.22,WeatherDisplay:10.37,2013-12-24 11:32:00,
2013-12-24 22:37:00,69.1,61.6,29.97,East,85,2.0,5.0,77,0.00,CLR,,0.22,WeatherDisplay:10.37,2013-12-24 11:37:00,
2013-12-24 22:42:00,69.1,61.6,29.97,East,83,0.0,5.0,77,0.00,CLR,,0.22,WeatherDisplay:10.37,2013-12-24 11:42:00,
2013-12-24 22:47:00,68.9,61.4,29.97,ENE,74,0.0,3.0,77,0.00,CLR,,0.22,WeatherDisplay:10.37,2013-12-24 11:47:00,
2013-12-24 22:52:00,68.9,61.4,29.96,ENE,62,1.0,4.0,77,0.00,CLR,,0.22,WeatherDisplay:10.37,2013-12-24 11:52:00,
2013-12-24 22:57:00,68.8,61.3,29.97,ENE,75,0.0,6.0,77,0.00,CLR,,0.22,WeatherDisplay:10.37,2013-12-24 11:57:00,
2013-12-24 23:02:00,68.7,61.2,29.97,SE,127,0.0,0.0,77,0.00,CLR,,0.22,WeatherDisplay:10.37,2013-12-24 12:02:00,
2013-12-24 23:07:00,68.7,61.2,29.97,SSE,157,0.0,2.0,77,0.00,CLR,,0.22,WeatherDisplay:10.37,2013-12-24 12:07:00,
2013-12-24 23:12:00,68.9,61.4,29.97,South,169,0.0,0.0,77,0.00,CLR,,0.22,WeatherDisplay:10.37,2013-12-24 12:12:00,
2013-12-24 23:17:00,68.9,61.4,29.96,South,179,0.0,0.0,77,0.00,CLR,,0.22,WeatherDisplay:10.37,2013-12-24 12:17:00,
2013-12-24 23:22:00,68.9,61.4,29.96,South,183,0.0,2.0,77,0.00,CLR,,0.22,WeatherDisplay:10.37,2013-12-24 12:22:00,
2013-12-24 23:27:00,68.9,61.4,29.96,South,190,0.0,2.0,77,0.00,CLR,,0.22,WeatherDisplay:10.37,2013-12-24 12:27:00,
2013-12-24 23:32:00,68.9,61.4,29.96,SSW,199,0.0,0.0,77,0.00,CLR,,0.22,WeatherDisplay:10.37,2013-12-24 12:32:00,
2013-12-24 23:37:00,68.9,61.4,29.96,SSW,200,0.0,0.0,77,0.00,CLR,,0.22,WeatherDisplay:10.37,2013-12-24 12:37:00,
2013-12-24 23:42:00,68.9,61.4,29.96,South,190,0.0,0.0,77,0.00,CLR,,0.22,WeatherDisplay:10.37,2013-12-24 12:42:00,
2013-12-24 23:47:00,68.9,61.4,29.96,South,183,0.0,0.0,77,0.00,CLR,,0.22,WeatherDisplay:10.37,2013-12-24 12:47:00,
2013-12-24 23:52:00,68.9,61.4,29.95,South,186,0.0,0.0,77,0.00,CLR,,0.22,WeatherDisplay:10.37,2013-12-24 12:52:00,
2013-12-24 23:57:00,68.9,61.4,29.95,South,173,0.0,0.0,77,0.00,CLR,,0.22,WeatherDisplay:10.37,2013-12-24 12:57:00,